Livingston, MT

3:59 PM MDT on May 26, 2018 (GMT -0600)
Mission

Weather History for KLVM - November, 2013

Change the Weather History Date:

Monday, November 4, 2013

  Actual Average Record
Temperature  
Mean Temperature 29 °F 39 °F  
Max Temperature 38 °F 50 °F 70 °F (2001)
Min Temperature 20 °F 27 °F -3 °F (2003)
Degree Days  
Heating Degree Days 36 26  
Month to date heating degree days 103 103  
Since 1 July heating degree days 955 1131  
Cooling Degree Days 0 0  
Month to date cooling degree days 0  
Year to date cooling degree days 230  
Moisture  
Dew Point 20 °F    
Average Humidity 63    
Maximum Humidity 77    
Minimum Humidity 48    
Precipitation  
Precipitation 0.04 in 0.02 in 0.44 in (1968)
Month to date precipitation 0.21 0.08  
Year to date precipitation 11.15 13.78  
Sea Level Pressure  
Sea Level Pressure 29.99 in    
Wind  
Wind Speed 9 mph (West)    
Max Wind Speed 18 mph    
Max Gust Speed 22 mph    
Visibility 8 miles    
Events Snow    
T = Trace of Precipitation, MM = Missing Value Source: NWS Daily Summary

Daily Weather History Graph

Daily Weather History Graph

Search for Another Location

Airport or City:

Astronomy

Nov. 04, 2013 Rise Set
Actual Time 7:06 AM MST 5:03 PM MST
Civil Twilight 6:35 AM MST 5:35 PM MST
Nautical Twilight 5:59 AM MST 6:10 PM MST
Astronomical Twilight 5:25 AM MST 6:44 PM MST
Moon 8:23 AM MST (11/4) 6:07 PM MST (11/4)
Length of Visible Light 10h 59m
Length of Day
9h 57m
New Moon, 2% of the Moon is Illuminated
Nov 4
New Moon
Nov 9
First Quarter
Nov 17
Full
Nov 25
Last Quarter
Dec 2
New

Hourly Weather History & Observations

Time (MST) Temp. Windchill Dew Point Humidity Pressure Visibility Wind Dir Wind Speed Gust Speed Precip Events Conditions
12:53 AM 30.9 °F 24.3 °F 19.0 °F 61% 29.94 in 10.0 mi WNW 6.9 mph - N/A   Overcast
1:53 AM 32.0 °F 21.2 °F 16.0 °F 52% 29.94 in 10.0 mi WSW 16.1 mph 21.9 mph N/A   Overcast
2:09 AM 32.0 °F 21.2 °F 16.0 °F 52% 29.88 in 10.0 mi WSW 16.1 mph - N/A   Overcast
2:53 AM 32.0 °F 22.5 °F 15.1 °F 50% 29.94 in 10.0 mi WSW 12.7 mph - N/A   Overcast
3:53 AM 30.9 °F 20.7 °F 17.1 °F 57% 29.96 in 10.0 mi WSW 13.8 mph - N/A   Overcast
4:53 AM 30.0 °F 21.1 °F 19.9 °F 66% 29.96 in 10.0 mi West 10.4 mph - N/A   Overcast
5:53 AM 30.0 °F 20.5 °F 21.0 °F 69% 29.98 in 10.0 mi WSW 11.5 mph - N/A   Overcast
6:53 AM 30.0 °F 25.2 °F 21.0 °F 69% 29.98 in 10.0 mi WNW 4.6 mph - N/A   Overcast
7:53 AM 28.9 °F 21.9 °F 21.9 °F 75% 30.01 in 10.0 mi WNW 6.9 mph - N/A   Overcast
8:53 AM 32.0 °F 24.8 °F 21.0 °F 64% 30.00 in 10.0 mi West 8.1 mph - N/A   Overcast
9:53 AM 34.0 °F 26.6 °F 19.0 °F 54% 30.00 in 10.0 mi West 9.2 mph - N/A   Overcast
10:53 AM 36.0 °F 28.5 °F 21.9 °F 57% 30.00 in 10.0 mi WNW 10.4 mph - N/A   Overcast
11:53 AM 37.0 °F 28.5 °F 19.0 °F 48% 29.98 in 10.0 mi SW 13.8 mph - 0.00 in   Scattered Clouds
12:53 PM 34.0 °F 25.5 °F 21.0 °F 59% 29.98 in 10.0 mi WSW 11.5 mph - 0.00 in   Overcast
1:18 PM 32.0 °F 27.5 °F 21.9 °F 66% 29.92 in 10.0 mi West 4.6 mph - 0.00 in Snow Light Snow
1:44 PM 30.9 °F 22.8 °F 23.0 °F 72% 29.92 in 1.5 mi West 9.2 mph - 0.01 in Snow Light Snow
1:47 PM 30.2 °F 21.9 °F 23.0 °F 75% 29.92 in 0.8 mi NW 9.2 mph - 0.02 in Snow Light Snow
1:53 PM 30.0 °F 23.2 °F 24.1 °F 79% 30.01 in 0.5 mi NNW 6.9 mph - 0.03 in Snow Snow
2:03 PM 30.0 °F 25.2 °F 25.0 °F 82% 29.92 in 1.0 mi NNW 4.6 mph - 0.01 in Snow Light Snow
2:07 PM 30.9 °F 26.2 °F 25.0 °F 79% 29.92 in 0.8 mi North 4.6 mph - 0.01 in Snow Light Snow
2:15 PM 30.9 °F 27.5 °F 25.0 °F 79% 29.92 in 1.2 mi North 3.5 mph - 0.01 in Snow Light Snow
2:19 PM 30.9 °F - 25.0 °F 79% 29.92 in 2.5 mi Calm Calm - 0.01 in Snow Light Snow
2:26 PM 30.9 °F - 24.1 °F 76% 29.92 in 9.0 mi Calm Calm - 0.01 in   Overcast
2:34 PM 30.9 °F - 25.0 °F 79% 29.92 in 10.0 mi Calm Calm - 0.01 in   Overcast
2:53 PM 30.9 °F 23.5 °F 25.0 °F 79% 30.01 in 5.0 mi SSW 8.1 mph - 0.01 in Snow Light Snow
3:53 PM 33.1 °F 25.5 °F 18.0 °F 54% 30.02 in 10.0 mi WSW 9.2 mph - 0.00 in   Mostly Cloudy
4:53 PM 30.9 °F 22.8 °F 16.0 °F 54% 30.04 in 10.0 mi SW 9.2 mph - N/A   Mostly Cloudy
5:53 PM 26.1 °F 16.2 °F 16.0 °F 66% 30.09 in 10.0 mi WSW 10.4 mph - N/A   Clear
6:53 PM 28.0 °F 20.0 °F 19.0 °F 69% 30.10 in 10.0 mi WSW 8.1 mph - N/A   Overcast
7:53 PM 23.0 °F 14.7 °F 16.0 °F 74% 30.13 in 10.0 mi West 6.9 mph - N/A   Partly Cloudy
8:53 PM 25.0 °F 17.1 °F 17.1 °F 72% 30.12 in 10.0 mi West 6.9 mph - N/A   Clear
9:53 PM 19.9 °F 14.9 °F 12.9 °F 74% 30.15 in 10.0 mi South 3.5 mph - N/A   Partly Cloudy
10:53 PM 21.0 °F 14.6 °F 16.0 °F 81% 30.14 in 10.0 mi NNE 4.6 mph - N/A   Mostly Cloudy
11:53 PM 23.0 °F 10.6 °F 17.1 °F 78% 30.14 in 10.0 mi NNW 13.8 mph - N/A   Overcast